Time,TemperatureF,DewpointF,PressureIn,WindDirection,WindDirectionDegrees,WindSpeedMPH,WindSpeedGustMPH,Humidity,HourlyPrecipIn,Conditions,Clouds,dailyrainin,SoftwareType,DateUTC
2013-02-23 00:00:00,30.9,21.2,30.31,SE,135,0.0,0.0,67,0.00,,,0.00,meteohub,2013-02-23 05:00:00,
2013-02-23 00:01:00,30.9,21.2,30.31,SE,135,0.0,0.0,67,0.00,,,0.00,meteohub,2013-02-23 05:01:00,
2013-02-23 00:02:00,30.7,21.0,30.31,SE,135,0.0,0.0,67,0.00,,,0.00,meteohub,2013-02-23 05:02:00,
2013-02-23 00:07:00,30.7,21.0,30.31,SE,135,0.0,0.0,67,0.00,,,0.00,meteohub,2013-02-23 05:07:00,
2013-02-23 00:12:00,30.4,20.7,30.32,SE,135,0.0,0.0,67,0.00,,,0.00,meteohub,2013-02-23 05:12:00,
2013-02-23 00:17:00,30.0,20.5,30.31,SE,135,0.0,0.0,67,0.00,,,0.00,meteohub,2013-02-23 05:17:00,
2013-02-23 00:22:00,29.5,19.9,30.31,SE,135,0.0,0.0,67,0.00,,,0.00,meteohub,2013-02-23 05:22:00,
2013-02-23 00:27:00,28.9,19.4,30.31,SE,135,0.0,0.0,67,0.00,,,0.00,meteohub,2013-02-23 05:27:00,
2013-02-23 00:32:00,28.6,19.0,30.31,SE,135,0.0,0.0,67,0.00,,,0.00,meteohub,2013-02-23 05:32:00,
2013-02-23 00:37:00,28.4,19.2,30.30,SE,135,0.0,0.0,68,0.00,,,0.00,meteohub,2013-02-23 05:37:00,
2013-02-23 00:42:00,28.2,18.0,30.30,SE,135,0.0,0.0,65,0.00,,,0.00,meteohub,2013-02-23 05:42:00,
2013-02-23 00:47:00,28.0,18.1,30.31,SE,135,0.0,0.0,66,0.00,,,0.00,meteohub,2013-02-23 05:47:00,
2013-02-23 00:52:00,27.9,18.0,30.30,SE,135,0.0,0.0,66,0.00,,,0.00,meteohub,2013-02-23 05:52:00,
2013-02-23 00:57:00,27.7,17.8,30.30,SE,135,0.0,0.0,66,0.00,,,0.00,meteohub,2013-02-23 05:57:00,
2013-02-23 01:02:00,27.5,17.6,30.30,SE,135,0.0,0.0,66,0.00,,,0.00,meteohub,2013-02-23 06:02:00,
2013-02-23 01:07:00,27.7,17.8,30.30,SE,135,0.0,0.0,66,0.00,,,0.00,meteohub,2013-02-23 06:07:00,
2013-02-23 01:13:00,27.9,18.3,30.30,SE,135,0.0,0.0,67,0.00,,,0.00,meteohub,2013-02-23 06:13:00,
2013-02-23 01:18:00,28.0,18.9,30.30,SE,135,0.0,0.0,68,0.00,,,0.00,meteohub,2013-02-23 06:18:00,
2013-02-23 01:23:00,28.4,20.5,30.30,SE,135,0.0,0.0,72,0.00,,,0.00,meteohub,2013-02-23 06:23:00,
2013-02-23 01:28:00,28.6,20.7,30.29,SE,135,0.0,0.0,72,0.00,,,0.00,meteohub,2013-02-23 06:28:00,
2013-02-23 01:33:00,28.9,21.0,30.29,SE,135,0.0,0.0,72,0.00,,,0.00,meteohub,2013-02-23 06:33:00,
2013-02-23 01:38:00,29.1,21.2,30.29,SE,135,0.0,0.0,72,0.00,,,0.00,meteohub,2013-02-23 06:38:00,
2013-02-23 01:43:00,29.5,21.9,30.29,West,270,0.0,0.0,73,0.00,,,0.00,meteohub,2013-02-23 06:43:00,
2013-02-23 01:48:00,29.7,22.1,30.28,West,270,0.0,1.0,73,0.00,,,0.00,meteohub,2013-02-23 06:48:00,
2013-02-23 01:54:00,29.7,22.1,30.28,West,270,0.0,1.0,73,0.00,,,0.00,meteohub,2013-02-23 06:54:00,
2013-02-23 01:59:00,29.7,22.1,30.29,West,270,0.0,1.0,73,0.00,,,0.00,meteohub,2013-02-23 06:59:00,
2013-02-23 02:04:00,30.0,22.5,30.28,NW,315,1.0,1.0,73,0.00,,,0.00,meteohub,2013-02-23 07:04:00,
2013-02-23 02:09:00,30.0,22.5,30.29,NW,315,0.0,1.0,73,0.00,,,0.00,meteohub,2013-02-23 07:09:00,
2013-02-23 02:14:00,30.0,22.5,30.29,NW,315,0.0,1.0,73,0.00,,,0.00,meteohub,2013-02-23 07:14:00,
2013-02-23 02:19:00,30.0,22.1,30.29,NW,315,0.0,1.0,72,0.00,,,0.00,meteohub,2013-02-23 07:19:00,
2013-02-23 02:24:00,30.2,21.9,30.28,NW,315,0.0,1.0,71,0.00,,,0.00,meteohub,2013-02-23 07:24:00,
2013-02-23 02:29:00,30.2,21.9,30.28,West,270,0.0,0.0,71,0.00,,,0.00,meteohub,2013-02-23 07:29:00,
2013-02-23 02:34:00,30.4,22.1,30.28,West,270,0.0,0.0,71,0.00,,,0.00,meteohub,2013-02-23 07:34:00,
2013-02-23 02:39:00,30.4,22.1,30.28,West,270,0.0,0.0,71,0.00,,,0.00,meteohub,2013-02-23 07:39:00,
2013-02-23 02:45:00,30.4,22.1,30.27,West,270,0.0,0.0,71,0.00,,,0.00,meteohub,2013-02-23 07:45:00,
2013-02-23 02:50:00,30.6,22.3,30.28,West,270,0.0,0.0,71,0.00,,,0.00,meteohub,2013-02-23 07:50:00,
2013-02-23 02:55:00,30.6,22.3,30.27,West,270,0.0,0.0,71,0.00,,,0.00,meteohub,2013-02-23 07:55:00,
2013-02-23 03:00:00,30.6,22.3,30.27,West,270,0.0,0.0,71,0.00,,,0.00,meteohub,2013-02-23 08:00:00,
2013-02-23 03:05:00,30.6,22.3,30.27,West,270,0.0,0.0,71,0.00,,,0.00,meteohub,2013-02-23 08:05:00,
2013-02-23 03:10:00,30.6,22.3,30.27,West,270,0.0,0.0,71,0.00,,,0.00,meteohub,2013-02-23 08:10:00,
2013-02-23 03:15:00,30.7,22.1,30.27,West,270,0.0,0.0,70,0.00,,,0.00,meteohub,2013-02-23 08:15:00,
2013-02-23 03:20:00,30.9,22.3,30.27,West,270,0.0,0.0,70,0.00,,,0.00,meteohub,2013-02-23 08:20:00,
2013-02-23 03:25:00,30.9,21.9,30.27,West,270,0.0,0.0,69,0.00,,,0.00,meteohub,2013-02-23 08:25:00,
2013-02-23 03:30:00,30.9,21.9,30.27,West,270,0.0,0.0,69,0.00,,,0.00,meteohub,2013-02-23 08:30:00,
2013-02-23 03:35:00,31.1,22.1,30.26,West,270,0.0,0.0,69,0.00,,,0.00,meteohub,2013-02-23 08:35:00,
2013-02-23 03:40:00,31.1,22.1,30.26,West,270,0.0,0.0,69,0.00,,,0.00,meteohub,2013-02-23 08:40:00,
2013-02-23 03:45:00,31.1,22.1,30.27,West,270,0.0,0.0,69,0.00,,,0.00,meteohub,2013-02-23 08:45:00,
2013-02-23 03:51:00,31.1,22.1,30.26,West,270,0.0,0.0,69,0.00,,,0.00,meteohub,2013-02-23 08:51:00,
2013-02-23 03:56:00,31.3,22.3,30.27,West,270,0.0,0.0,69,0.00,,,0.00,meteohub,2013-02-23 08:56:00,
2013-02-23 04:01:00,31.3,22.3,30.25,West,270,0.0,0.0,69,0.00,,,0.00,meteohub,2013-02-23 09:01:00,
2013-02-23 04:06:00,31.3,22.3,30.26,West,270,0.0,0.0,69,0.00,,,0.00,meteohub,2013-02-23 09:06:00,
2013-02-23 04:11:00,31.3,22.3,30.26,West,270,0.0,0.0,69,0.00,,,0.00,meteohub,2013-02-23 09:11:00,
2013-02-23 04:16:00,31.3,22.3,30.26,West,270,0.0,0.0,69,0.00,,,0.00,meteohub,2013-02-23 09:16:00,
2013-02-23 04:21:00,31.3,22.3,30.26,West,270,0.0,0.0,69,0.00,,,0.00,meteohub,2013-02-23 09:21:00,
2013-02-23 04:26:00,31.3,22.6,30.25,West,270,0.0,0.0,70,0.00,,,0.00,meteohub,2013-02-23 09:26:00,
2013-02-23 04:31:00,31.3,22.6,30.25,West,270,0.0,0.0,70,0.00,,,0.00,meteohub,2013-02-23 09:31:00,
2013-02-23 04:36:00,31.3,22.6,30.25,West,270,0.0,0.0,70,0.00,,,0.00,meteohub,2013-02-23 09:36:00,
2013-02-23 04:41:00,31.5,22.8,30.26,West,270,0.0,0.0,70,0.00,,,0.00,meteohub,2013-02-23 09:41:00,
2013-02-23 04:46:00,31.5,22.5,30.25,West,270,0.0,0.0,69,0.00,,,0.00,meteohub,2013-02-23 09:46:00,
2013-02-23 04:51:00,31.6,22.6,30.25,West,270,0.0,0.0,69,0.00,,,0.00,meteohub,2013-02-23 09:51:00,
2013-02-23 04:56:00,31.6,22.6,30.24,West,270,2.0,0.0,69,0.00,,,0.00,meteohub,2013-02-23 09:56:00,
2013-02-23 05:01:00,31.8,22.8,30.25,West,270,0.0,2.0,69,0.00,,,0.00,meteohub,2013-02-23 10:01:00,
2013-02-23 05:07:00,32.0,22.3,30.25,North,0,0.0,2.0,67,0.00,,,0.00,meteohub,2013-02-23 10:07:00,
2013-02-23 05:12:00,32.2,22.1,30.24,West,270,0.0,2.0,66,0.00,,,0.00,meteohub,2013-02-23 10:12:00,
2013-02-23 05:17:00,32.2,22.1,30.25,West,270,0.0,1.0,66,0.00,,,0.00,meteohub,2013-02-23 10:17:00,
2013-02-23 05:22:00,32.2,21.7,30.25,NW,315,0.0,1.0,65,0.00,,,0.00,meteohub,2013-02-23 10:22:00,
2013-02-23 05:27:00,32.2,21.7,30.24,NW,315,0.0,0.0,65,0.00,,,0.00,meteohub,2013-02-23 10:27:00,
2013-02-23 05:32:00,32.2,21.7,30.24,NW,315,0.0,0.0,65,0.00,,,0.00,meteohub,2013-02-23 10:32:00,
2013-02-23 05:37:00,32.2,22.1,30.24,West,270,1.0,0.0,66,0.00,,,0.00,meteohub,2013-02-23 10:37:00,
2013-02-23 05:42:00,32.2,21.7,30.24,West,270,1.0,1.0,65,0.00,,,0.00,meteohub,2013-02-23 10:42:00,
2013-02-23 05:47:00,32.4,21.9,30.24,West,270,2.0,2.0,65,0.00,,,0.00,meteohub,2013-02-23 10:47:00,
2013-02-23 05:52:00,32.4,22.3,30.24,WNW,293,0.0,2.0,66,0.00,,,0.00,meteohub,2013-02-23 10:52:00,
2013-02-23 05:57:00,32.4,22.3,30.24,West,270,1.0,2.0,66,0.00,,,0.00,meteohub,2013-02-23 10:57:00,
2013-02-23 06:02:00,32.2,22.1,30.25,West,270,1.0,2.0,66,0.00,,,0.00,meteohub,2013-02-23 11:02:00,
2013-02-23 06:07:00,32.4,22.3,30.24,West,270,1.0,2.0,66,0.00,,,0.00,meteohub,2013-02-23 11:07:00,
2013-02-23 06:12:00,32.4,22.6,30.24,South,180,2.0,2.0,67,0.00,,,0.00,meteohub,2013-02-23 11:12:00,
2013-02-23 06:17:00,32.4,22.6,30.24,West,270,0.0,2.0,67,0.00,,,0.00,meteohub,2013-02-23 11:17:00,
2013-02-23 06:22:00,32.5,22.8,30.23,West,270,2.0,2.0,67,0.00,,,0.00,meteohub,2013-02-23 11:22:00,
2013-02-23 06:27:00,32.5,22.8,30.23,West,270,0.0,2.0,67,0.00,,,0.00,meteohub,2013-02-23 11:27:00,
2013-02-23 06:32:00,32.5,22.8,30.23,West,270,1.0,2.0,67,0.00,,,0.00,meteohub,2013-02-23 11:32:00,
2013-02-23 06:37:00,32.5,22.8,30.22,West,270,0.0,2.0,67,0.00,,,0.00,meteohub,2013-02-23 11:37:00,
2013-02-23 06:42:00,32.5,22.8,30.22,West,270,2.0,2.0,67,0.00,,,0.00,meteohub,2013-02-23 11:42:00,
2013-02-23 06:47:00,32.7,23.4,30.23,West,270,0.0,2.0,68,0.00,,,0.00,meteohub,2013-02-23 11:47:00,
2013-02-23 06:52:00,32.7,23.4,30.22,West,270,0.0,2.0,68,0.00,,,0.00,meteohub,2013-02-23 11:52:00,
2013-02-23 06:57:00,32.9,23.5,30.23,West,270,1.0,2.0,68,0.00,,,0.00,meteohub,2013-02-23 11:57:00,
2013-02-23 07:02:00,32.9,23.5,30.23,West,270,2.0,2.0,68,0.00,,,0.00,meteohub,2013-02-23 12:02:00,
2013-02-23 07:07:00,33.1,23.7,30.23,West,270,0.0,2.0,68,0.00,,,0.00,meteohub,2013-02-23 12:07:00,
2013-02-23 07:12:00,33.3,23.9,30.22,West,270,2.0,2.0,68,0.00,,,0.00,meteohub,2013-02-23 12:12:00,
2013-02-23 07:17:00,33.3,23.9,30.23,West,270,2.0,2.0,68,0.00,,,0.00,meteohub,2013-02-23 12:17:00,
2013-02-23 07:22:00,33.4,24.1,30.23,NW,315,1.0,2.0,68,0.00,,,0.00,meteohub,2013-02-23 12:22:00,
2013-02-23 07:27:00,33.4,24.1,30.22,West,270,2.0,2.0,68,0.00,,,0.00,meteohub,2013-02-23 12:27:00,
2013-02-23 07:32:00,33.6,24.3,30.22,NW,315,2.0,2.0,68,0.00,,,0.00,meteohub,2013-02-23 12:32:00,
2013-02-23 07:37:00,33.6,24.3,30.23,West,270,1.0,2.0,68,0.00,,,0.00,meteohub,2013-02-23 12:37:00,
2013-02-23 07:42:00,33.8,24.1,30.23,NW,315,1.0,2.0,67,0.00,,,0.00,meteohub,2013-02-23 12:42:00,
2013-02-23 07:47:00,33.8,24.1,30.23,NW,315,1.0,2.0,67,0.00,,,0.00,meteohub,2013-02-23 12:47:00,
2013-02-23 07:52:00,34.0,24.3,30.23,West,270,2.0,2.0,67,0.00,,,0.00,meteohub,2013-02-23 12:52:00,
2013-02-23 07:57:00,34.0,23.9,30.23,West,270,3.0,3.0,66,0.00,,,0.00,meteohub,2013-02-23 12:57:00,
2013-02-23 08:02:00,34.2,24.1,30.23,WNW,293,2.0,3.0,66,0.00,,,0.00,meteohub,2013-02-23 13:02:00,
2013-02-23 08:07:00,34.2,24.1,30.23,West,270,4.0,4.0,66,0.00,,,0.00,meteohub,2013-02-23 13:07:00,
2013-02-23 08:12:00,34.3,24.1,30.23,South,180,2.0,4.0,66,0.00,,,0.00,meteohub,2013-02-23 13:12:00,
2013-02-23 08:17:00,34.3,24.1,30.23,NW,315,2.0,4.0,66,0.00,,,0.00,meteohub,2013-02-23 13:17:00,
2013-02-23 08:22:00,34.5,24.3,30.23,NW,315,2.0,4.0,66,0.00,,,0.00,meteohub,2013-02-23 13:22:00,
2013-02-23 08:27:00,34.5,24.3,30.23,NW,315,1.0,3.0,66,0.00,,,0.00,meteohub,2013-02-23 13:27:00,
2013-02-23 08:32:00,34.7,24.4,30.23,South,180,2.0,3.0,66,0.00,,,0.00,meteohub,2013-02-23 13:32:00,
2013-02-23 08:38:00,34.9,24.6,30.22,NW,315,2.0,3.0,66,0.00,,,0.00,meteohub,2013-02-23 13:38:00,
2013-02-23 08:43:00,35.1,24.8,30.22,NW,315,2.0,3.0,66,0.00,,,0.00,meteohub,2013-02-23 13:43:00,
2013-02-23 08:48:00,35.2,24.6,30.22,West,270,2.0,3.0,65,0.00,,,0.00,meteohub,2013-02-23 13:48:00,
2013-02-23 08:53:00,35.4,24.8,30.22,NW,315,2.0,2.0,65,0.00,,,0.00,meteohub,2013-02-23 13:53:00,
2013-02-23 08:58:00,35.4,24.8,30.22,NW,315,2.0,3.0,65,0.00,,,0.00,meteohub,2013-02-23 13:58:00,
2013-02-23 09:03:00,35.6,24.6,30.21,NW,315,2.0,3.0,64,0.00,,,0.00,meteohub,2013-02-23 14:03:00,
2013-02-23 09:08:00,35.8,24.4,30.21,NW,315,2.0,3.0,63,0.00,,,0.00,meteohub,2013-02-23 14:08:00,
2013-02-23 09:13:00,36.0,24.6,30.21,West,270,4.0,4.0,63,0.00,,,0.00,meteohub,2013-02-23 14:13:00,
2013-02-23 09:18:00,36.0,24.3,30.20,NW,315,2.0,4.0,62,0.00,,,0.00,meteohub,2013-02-23 14:18:00,
2013-02-23 09:23:00,36.0,24.3,30.20,NW,315,2.0,4.0,62,0.00,,,0.00,meteohub,2013-02-23 14:23:00,
2013-02-23 09:28:00,36.1,24.4,30.20,NW,315,2.0,4.0,62,0.00,,,0.00,meteohub,2013-02-23 14:28:00,
2013-02-23 09:34:00,36.3,24.6,30.21,NW,315,2.0,4.0,62,0.00,,,0.00,meteohub,2013-02-23 14:34:00,
2013-02-23 09:39:00,36.5,24.8,30.20,West,270,0.0,4.0,62,0.00,,,0.00,meteohub,2013-02-23 14:39:00,
2013-02-23 09:44:00,36.7,24.4,30.20,South,180,2.0,4.0,61,0.00,,,0.00,meteohub,2013-02-23 14:44:00,
2013-02-23 09:49:00,36.7,24.4,30.20,NW,315,2.0,4.0,61,0.00,,,0.00,meteohub,2013-02-23 14:49:00,
2013-02-23 09:54:00,36.9,24.6,30.20,NW,315,2.0,4.0,61,0.00,,,0.00,meteohub,2013-02-23 14:54:00,
2013-02-23 09:59:00,37.0,24.4,30.20,NW,315,4.0,4.0,60,0.00,,,0.00,meteohub,2013-02-23 14:59:00,
2013-02-23 10:04:00,37.0,24.4,30.20,NNW,338,4.0,4.0,60,0.00,,,0.00,meteohub,2013-02-23 15:04:00,
2013-02-23 10:09:00,37.0,24.4,30.19,NW,315,3.0,4.0,60,0.00,,,0.00,meteohub,2013-02-23 15:09:00,
2013-02-23 10:14:00,37.0,24.4,30.19,WNW,293,2.0,4.0,60,0.00,,,0.00,meteohub,2013-02-23 15:14:00,
2013-02-23 10:19:00,37.2,24.6,30.20,NW,315,2.0,4.0,60,0.00,,,0.00,meteohub,2013-02-23 15:19:00,
2013-02-23 10:24:00,37.2,24.6,30.20,NW,315,2.0,4.0,60,0.00,,,0.00,meteohub,2013-02-23 15:24:00,
2013-02-23 10:29:00,37.2,24.6,30.19,NW,315,2.0,4.0,60,0.00,,,0.00,meteohub,2013-02-23 15:29:00,
2013-02-23 10:35:00,37.2,24.3,30.19,NW,315,3.0,4.0,59,0.00,,,0.00,meteohub,2013-02-23 15:35:00,
2013-02-23 10:40:00,37.6,26.1,30.18,NW,315,3.0,4.0,63,0.00,,,0.00,meteohub,2013-02-23 15:40:00,
2013-02-23 10:45:00,37.8,26.2,30.19,West,270,3.0,4.0,63,0.00,,,0.00,meteohub,2013-02-23 15:45:00,
2013-02-23 10:50:00,37.8,25.9,30.18,WNW,293,3.0,4.0,62,0.00,,,0.00,meteohub,2013-02-23 15:50:00,
2013-02-23 10:55:00,37.6,25.7,30.18,West,270,3.0,4.0,62,0.00,,,0.00,meteohub,2013-02-23 15:55:00,
2013-02-23 11:00:00,37.6,25.7,30.18,West,270,3.0,6.0,62,0.00,,,0.00,meteohub,2013-02-23 16:00:00,
2013-02-23 11:05:00,37.8,25.9,30.18,NW,315,4.0,6.0,62,0.00,,,0.00,meteohub,2013-02-23 16:05:00,
2013-02-23 11:10:00,37.9,26.1,30.17,NW,315,2.0,6.0,62,0.00,,,0.00,meteohub,2013-02-23 16:10:00,
2013-02-23 11:15:00,38.1,26.2,30.17,NW,315,3.0,4.0,62,0.00,,,0.00,meteohub,2013-02-23 16:15:00,
2013-02-23 11:20:00,38.3,26.4,30.16,North,0,2.0,4.0,62,0.00,,,0.00,meteohub,2013-02-23 16:20:00,
2013-02-23 11:25:00,38.7,26.8,30.16,West,270,2.0,4.0,62,0.00,,,0.00,meteohub,2013-02-23 16:25:00,
2013-02-23 11:30:00,38.7,26.8,30.16,West,270,2.0,4.0,62,0.00,,,0.00,meteohub,2013-02-23 16:30:00,
2013-02-23 11:35:00,38.8,26.6,30.15,West,270,4.0,5.0,61,0.00,,,0.00,meteohub,2013-02-23 16:35:00,
2013-02-23 11:40:00,38.8,26.1,30.15,West,270,2.0,7.0,60,0.00,,,0.00,meteohub,2013-02-23 16:40:00,
2013-02-23 11:45:00,39.0,26.8,30.16,WNW,293,3.0,7.0,61,0.00,,,0.00,meteohub,2013-02-23 16:45:00,
2013-02-23 11:51:00,39.2,26.4,30.15,West,270,3.0,7.0,60,0.00,,,0.00,meteohub,2013-02-23 16:51:00,
2013-02-23 11:56:00,39.0,26.2,30.15,NW,315,2.0,4.0,60,0.00,,,0.00,meteohub,2013-02-23 16:56:00,
2013-02-23 12:01:00,39.0,26.8,30.14,NW,315,1.0,4.0,61,0.00,,,0.00,meteohub,2013-02-23 17:01:00,
2013-02-23 12:06:00,39.2,26.4,30.14,NW,315,2.0,4.0,60,0.00,,,0.00,meteohub,2013-02-23 17:06:00,
2013-02-23 12:11:00,39.2,26.4,30.14,West,270,2.0,4.0,60,0.00,,,0.00,meteohub,2013-02-23 17:11:00,
2013-02-23 12:16:00,39.2,26.4,30.14,NW,315,2.0,4.0,60,0.00,,,0.00,meteohub,2013-02-23 17:16:00,
2013-02-23 12:21:00,39.0,26.8,30.14,NW,315,3.0,4.0,61,0.00,,,0.00,meteohub,2013-02-23 17:21:00,
2013-02-23 12:26:00,39.2,27.0,30.13,East,90,2.0,4.0,61,0.00,,,0.00,meteohub,2013-02-23 17:26:00,
2013-02-23 12:31:00,39.4,26.6,30.13,NW,315,2.0,4.0,60,0.00,,,0.00,meteohub,2013-02-23 17:31:00,
2013-02-23 12:36:00,39.6,26.8,30.13,NW,315,2.0,4.0,60,0.00,,,0.00,meteohub,2013-02-23 17:36:00,
2013-02-23 12:41:00,39.9,27.1,30.12,NW,315,2.0,4.0,60,0.00,,,0.00,meteohub,2013-02-23 17:41:00,
2013-02-23 12:46:00,39.9,26.8,30.12,NW,315,3.0,4.0,59,0.00,,,0.00,meteohub,2013-02-23 17:46:00,
2013-02-23 12:51:00,39.9,26.8,30.12,South,180,4.0,4.0,59,0.00,,,0.00,meteohub,2013-02-23 17:51:00,
2013-02-23 12:56:00,39.9,26.8,30.11,NW,315,3.0,4.0,59,0.00,,,0.00,meteohub,2013-02-23 17:56:00,
2013-02-23 13:01:00,39.7,26.6,30.11,West,270,3.0,7.0,59,0.00,,,0.00,meteohub,2013-02-23 18:01:00,
2013-02-23 13:07:00,39.7,27.0,30.11,West,270,4.0,7.0,60,0.00,,,0.00,meteohub,2013-02-23 18:07:00,
2013-02-23 13:12:00,39.7,27.0,30.11,NW,315,3.0,7.0,60,0.00,,,0.00,meteohub,2013-02-23 18:12:00,
2013-02-23 13:17:00,39.6,26.4,30.11,South,180,2.0,4.0,59,0.00,,,0.00,meteohub,2013-02-23 18:17:00,
2013-02-23 13:22:00,39.4,26.6,30.11,West,270,2.0,5.0,60,0.00,,,0.00,meteohub,2013-02-23 18:22:00,
2013-02-23 13:27:00,39.4,26.6,30.11,NW,315,2.0,5.0,60,0.00,,,0.00,meteohub,2013-02-23 18:27:00,
2013-02-23 13:32:00,39.2,27.0,30.11,NW,315,3.0,5.0,61,0.00,,,0.00,meteohub,2013-02-23 18:32:00,
2013-02-23 13:37:00,39.4,27.1,30.11,West,270,3.0,4.0,61,0.00,,,0.00,meteohub,2013-02-23 18:37:00,
2013-02-23 13:42:00,39.2,27.0,30.12,NW,315,5.0,5.0,61,0.00,,,0.00,meteohub,2013-02-23 18:42:00,
2013-02-23 13:47:00,39.2,27.0,30.12,NW,315,4.0,5.0,61,0.00,,,0.00,meteohub,2013-02-23 18:47:00,
2013-02-23 13:52:00,39.2,27.0,30.11,NW,315,2.0,5.0,61,0.00,,,0.00,meteohub,2013-02-23 18:52:00,
2013-02-23 13:57:00,39.4,27.1,30.11,West,270,2.0,5.0,61,0.00,,,0.00,meteohub,2013-02-23 18:57:00,
2013-02-23 14:02:00,39.4,27.1,30.11,NW,315,3.0,4.0,61,0.00,,,0.00,meteohub,2013-02-23 19:02:00,
2013-02-23 14:07:00,39.6,27.1,30.11,NW,315,2.0,4.0,61,0.00,,,0.00,meteohub,2013-02-23 19:07:00,
2013-02-23 14:12:00,39.6,27.1,30.11,NW,315,2.0,4.0,61,0.00,,,0.00,meteohub,2013-02-23 19:12:00,
2013-02-23 14:17:00,39.4,27.1,30.11,NW,315,3.0,3.0,61,0.00,,,0.00,meteohub,2013-02-23 19:17:00,
2013-02-23 14:22:00,39.2,27.0,30.11,North,0,1.0,3.0,61,0.00,,,0.00,meteohub,2013-02-23 19:22:00,
2013-02-23 14:27:00,39.4,27.5,30.10,NW,315,2.0,3.0,62,0.00,,,0.00,meteohub,2013-02-23 19:27:00,
2013-02-23 14:32:00,39.2,27.0,30.10,NW,315,2.0,3.0,61,0.00,,,0.00,meteohub,2013-02-23 19:32:00,
2013-02-23 14:37:00,39.4,27.1,30.09,NW,315,2.0,4.0,61,0.00,,,0.00,meteohub,2013-02-23 19:37:00,
2013-02-23 14:42:00,39.6,27.1,30.10,South,180,2.0,4.0,61,0.00,,,0.00,meteohub,2013-02-23 19:42:00,
2013-02-23 14:47:00,39.9,27.5,30.09,North,0,2.0,4.0,61,0.00,,,0.00,meteohub,2013-02-23 19:47:00,
2013-02-23 14:52:00,39.9,27.5,30.10,West,270,3.0,3.0,61,0.00,,,0.00,meteohub,2013-02-23 19:52:00,
2013-02-23 14:57:00,39.9,27.5,30.10,NE,45,2.0,3.0,61,0.00,,,0.00,meteohub,2013-02-23 19:57:00,
2013-02-23 15:02:00,39.9,27.5,30.09,WNW,293,3.0,4.0,61,0.00,,,0.00,meteohub,2013-02-23 20:02:00,
2013-02-23 15:07:00,39.7,27.0,30.09,NW,315,4.0,4.0,60,0.00,,,0.00,meteohub,2013-02-23 20:07:00,
2013-02-23 15:12:00,39.6,27.1,30.09,West,270,3.0,4.0,61,0.00,,,0.00,meteohub,2013-02-23 20:12:00,
2013-02-23 15:17:00,39.4,27.1,30.09,West,270,2.0,4.0,61,0.00,,,0.00,meteohub,2013-02-23 20:17:00,
2013-02-23 15:22:00,39.4,27.1,30.09,West,270,2.0,4.0,61,0.00,,,0.00,meteohub,2013-02-23 20:22:00,
2013-02-23 15:27:00,39.4,27.1,30.08,NW,315,2.0,4.0,61,0.00,,,0.00,meteohub,2013-02-23 20:27:00,
2013-02-23 15:32:00,39.4,27.1,30.09,West,270,2.0,4.0,61,0.00,,,0.00,meteohub,2013-02-23 20:32:00,
2013-02-23 15:37:00,39.4,27.1,30.08,West,270,2.0,4.0,61,0.00,,,0.00,meteohub,2013-02-23 20:37:00,
2013-02-23 15:42:00,39.4,27.1,30.09,NW,315,2.0,5.0,61,0.00,,,0.00,meteohub,2013-02-23 20:42:00,
2013-02-23 15:47:00,39.4,27.1,30.07,NW,315,2.0,5.0,61,0.00,,,0.00,meteohub,2013-02-23 20:47:00,
2013-02-23 15:52:00,39.2,27.0,30.07,South,180,4.0,5.0,61,0.00,,,0.00,meteohub,2013-02-23 20:52:00,
2013-02-23 15:57:00,39.2,27.0,30.07,NW,315,2.0,4.0,61,0.00,,,0.00,meteohub,2013-02-23 20:57:00,
2013-02-23 16:02:00,39.0,27.1,30.06,West,270,2.0,4.0,62,0.00,,,0.00,meteohub,2013-02-23 21:02:00,
2013-02-23 16:07:00,39.0,27.1,30.06,NW,315,2.0,5.0,62,0.00,,,0.00,meteohub,2013-02-23 21:07:00,
2013-02-23 16:12:00,38.8,27.3,30.06,NW,315,2.0,5.0,63,0.00,,,0.00,meteohub,2013-02-23 21:12:00,
2013-02-23 16:17:00,38.8,27.3,30.06,NW,315,2.0,5.0,63,0.00,,,0.00,meteohub,2013-02-23 21:17:00,
2013-02-23 16:22:00,38.8,27.3,30.07,NW,315,3.0,4.0,63,0.00,,,0.00,meteohub,2013-02-23 21:22:00,
2013-02-23 16:27:00,38.7,27.1,30.06,North,0,4.0,4.0,63,0.00,,,0.00,meteohub,2013-02-23 21:27:00,
2013-02-23 16:32:00,38.7,27.5,30.06,NW,315,2.0,4.0,64,0.00,,,0.00,meteohub,2013-02-23 21:32:00,
2013-02-23 16:37:00,38.5,27.3,30.05,NE,45,1.0,4.0,64,0.00,,,0.00,meteohub,2013-02-23 21:37:00,
2013-02-23 16:42:00,38.3,27.5,30.06,NW,315,4.0,4.0,65,0.00,,,0.00,meteohub,2013-02-23 21:42:00,
2013-02-23 16:47:00,38.1,27.3,30.06,South,180,2.0,4.0,65,0.00,,,0.00,meteohub,2013-02-23 21:47:00,
2013-02-23 16:52:00,37.9,27.7,30.06,West,270,2.0,4.0,66,0.00,,,0.00,meteohub,2013-02-23 21:52:00,
2013-02-23 16:57:00,37.9,27.7,30.05,NW,315,2.0,4.0,66,0.00,,,0.00,meteohub,2013-02-23 21:57:00,
2013-02-23 17:02:00,37.8,27.9,30.05,NW,315,2.0,4.0,67,0.00,,,0.00,meteohub,2013-02-23 22:02:00,
2013-02-23 17:07:00,37.6,27.7,30.06,NW,315,2.0,4.0,67,0.00,,,0.00,meteohub,2013-02-23 22:07:00,
2013-02-23 17:12:00,37.6,27.7,30.05,South,180,3.0,4.0,67,0.00,,,0.00,meteohub,2013-02-23 22:12:00,
2013-02-23 17:17:00,37.4,27.5,30.05,WNW,293,2.0,3.0,67,0.00,,,0.00,meteohub,2013-02-23 22:17:00,
2013-02-23 17:22:00,37.4,27.9,30.05,East,90,2.0,4.0,68,0.00,,,0.00,meteohub,2013-02-23 22:22:00,
2013-02-23 17:27:00,37.2,26.2,30.05,WNW,293,2.0,4.0,64,0.00,,,0.00,meteohub,2013-02-23 22:27:00,
2013-02-23 17:32:00,37.0,26.4,30.05,NW,315,2.0,3.0,65,0.00,,,0.00,meteohub,2013-02-23 22:32:00,
2013-02-23 17:37:00,36.9,26.2,30.05,NW,315,4.0,4.0,65,0.00,,,0.00,meteohub,2013-02-23 22:37:00,
2013-02-23 17:42:00,36.7,26.4,30.04,SW,225,2.0,5.0,66,0.00,,,0.00,meteohub,2013-02-23 22:42:00,
2013-02-23 17:47:00,36.3,26.8,30.04,NW,315,2.0,5.0,68,0.00,,,0.00,meteohub,2013-02-23 22:47:00,
2013-02-23 17:52:00,35.8,27.0,30.03,NW,315,3.0,7.0,70,0.00,,,0.00,meteohub,2013-02-23 22:52:00,
2013-02-23 17:57:00,35.2,27.5,30.03,NW,315,2.0,7.0,73,0.00,,,0.00,meteohub,2013-02-23 22:57:00,
2013-02-23 18:02:00,34.9,27.5,30.04,South,180,2.0,4.0,74,0.00,,,0.00,meteohub,2013-02-23 23:02:00,
2013-02-23 18:07:00,34.5,27.5,30.04,NE,45,3.0,3.0,75,0.00,,,0.00,meteohub,2013-02-23 23:07:00,
2013-02-23 18:12:00,34.3,27.9,30.04,West,270,2.0,3.0,77,0.00,,,0.00,meteohub,2013-02-23 23:12:00,
2013-02-23 18:17:00,34.2,28.4,30.03,NW,315,0.0,3.0,79,0.00,,,0.00,meteohub,2013-02-23 23:17:00,
2013-02-23 18:22:00,34.0,28.2,30.04,North,0,1.0,3.0,79,0.00,,,0.00,meteohub,2013-02-23 23:22:00,
2013-02-23 18:27:00,33.8,28.0,30.03,NW,315,0.0,3.0,79,0.00,,,0.00,meteohub,2013-02-23 23:27:00,
2013-02-23 18:32:00,33.8,28.2,30.03,West,270,2.0,2.0,80,0.00,,,0.00,meteohub,2013-02-23 23:32:00,
2013-02-23 18:37:00,33.8,28.2,30.03,East,90,1.0,2.0,80,0.00,,,0.00,meteohub,2013-02-23 23:37:00,
2013-02-23 18:42:00,33.6,28.4,30.03,NW,315,0.0,2.0,81,0.00,,,0.00,meteohub,2013-02-23 23:42:00,
2013-02-23 18:47:00,33.6,28.8,30.03,South,180,0.0,2.0,82,0.00,,,0.00,meteohub,2013-02-23 23:47:00,
2013-02-23 18:52:00,33.6,28.8,30.02,NW,315,2.0,4.0,82,0.00,,,0.00,meteohub,2013-02-23 23:52:00,
2013-02-23 18:57:00,33.6,28.8,30.01,NW,315,2.0,4.0,82,0.00,,,0.00,meteohub,2013-02-23 23:57:00,
2013-02-23 19:02:00,33.6,28.9,30.02,NW,315,0.0,4.0,83,0.00,,,0.00,meteohub,2013-02-24 00:02:00,
2013-02-23 19:07:00,33.6,28.9,30.02,NW,315,2.0,4.0,83,0.00,,,0.00,meteohub,2013-02-24 00:07:00,
2013-02-23 19:12:00,33.4,29.1,30.01,NW,315,0.0,4.0,84,0.00,,,0.00,meteohub,2013-02-24 00:12:00,
2013-02-23 19:17:00,33.4,29.1,30.02,NE,45,2.0,4.0,84,0.00,,,0.00,meteohub,2013-02-24 00:17:00,
2013-02-23 19:22:00,33.4,29.1,30.01,West,270,2.0,2.0,84,0.00,,,0.00,meteohub,2013-02-24 00:22:00,
2013-02-23 19:27:00,33.4,29.1,30.02,NW,315,0.0,2.0,84,0.00,,,0.00,meteohub,2013-02-24 00:27:00,
2013-02-23 19:32:00,33.4,29.5,30.02,West,270,2.0,2.0,85,0.00,,,0.00,meteohub,2013-02-24 00:32:00,
2013-02-23 19:37:00,33.3,29.3,30.01,NW,315,1.0,3.0,85,0.00,,,0.00,meteohub,2013-02-24 00:37:00,
2013-02-23 19:42:00,33.3,29.3,30.02,NW,315,0.0,3.0,85,0.00,,,0.00,meteohub,2013-02-24 00:42:00,
2013-02-23 19:47:00,33.3,29.3,30.01,NW,315,0.0,3.0,85,0.00,,,0.00,meteohub,2013-02-24 00:47:00,
2013-02-23 19:52:00,33.3,29.5,30.01,South,180,0.0,2.0,86,0.00,,,0.00,meteohub,2013-02-24 00:52:00,
2013-02-23 19:57:00,33.3,29.5,30.01,South,180,0.0,2.0,86,0.00,,,0.00,meteohub,2013-02-24 00:57:00,
2013-02-23 20:02:00,33.3,29.5,30.01,NW,315,0.0,1.0,86,0.00,,,0.00,meteohub,2013-02-24 01:02:00,
2013-02-23 20:07:00,33.3,29.5,30.01,NW,315,0.0,0.0,86,0.00,,,0.00,meteohub,2013-02-24 01:07:00,
2013-02-23 20:12:00,33.3,29.5,30.00,NE,45,0.0,0.0,86,0.00,,,0.00,meteohub,2013-02-24 01:12:00,
2013-02-23 20:17:00,33.3,29.5,30.00,East,90,0.0,0.0,86,0.00,,,0.00,meteohub,2013-02-24 01:17:00,
2013-02-23 20:22:00,33.3,29.5,30.00,SE,135,0.0,0.0,86,0.00,,,0.00,meteohub,2013-02-24 01:22:00,
2013-02-23 20:27:00,33.4,29.7,30.00,East,90,0.0,2.0,86,0.00,,,0.00,meteohub,2013-02-24 01:27:00,
2013-02-23 20:32:00,33.4,29.7,29.99,South,180,0.0,2.0,86,0.00,,,0.00,meteohub,2013-02-24 01:32:00,
2013-02-23 20:37:00,33.6,29.8,29.99,East,90,0.0,2.0,86,0.00,,,0.00,meteohub,2013-02-24 01:37:00,
2013-02-23 20:42:00,33.6,29.8,30.00,NW,315,1.0,2.0,86,0.00,,,0.00,meteohub,2013-02-24 01:42:00,
2013-02-23 20:47:00,33.6,30.2,29.99,NW,315,0.0,2.0,87,0.00,,,0.00,meteohub,2013-02-24 01:47:00,
2013-02-23 20:52:00,33.6,30.2,29.98,North,0,1.0,2.0,87,0.00,,,0.00,meteohub,2013-02-24 01:52:00,
2013-02-23 20:57:00,33.8,30.0,30.00,South,180,1.0,2.0,86,0.00,,,0.00,meteohub,2013-02-24 01:57:00,
2013-02-23 21:02:00,33.8,30.0,29.99,NW,315,1.0,2.0,86,0.00,,,0.00,meteohub,2013-02-24 02:02:00,
2013-02-23 21:07:00,33.8,30.0,29.99,NW,315,1.0,2.0,86,0.00,,,0.00,meteohub,2013-02-24 02:07:00,
2013-02-23 21:12:00,33.8,30.0,29.98,South,180,1.0,2.0,86,0.00,,,0.00,meteohub,2013-02-24 02:12:00,
2013-02-23 21:17:00,33.8,30.0,29.98,NW,315,1.0,2.0,86,0.00,,,0.00,meteohub,2013-02-24 02:17:00,
2013-02-23 21:22:00,33.8,30.0,29.97,South,180,2.0,2.0,86,0.00,,,0.00,meteohub,2013-02-24 02:22:00,
2013-02-23 21:27:00,33.8,30.4,29.96,NW,315,2.0,3.0,87,0.00,,,0.00,meteohub,2013-02-24 02:27:00,
2013-02-23 21:32:00,33.8,30.4,29.96,West,270,2.0,3.0,87,0.00,,,0.00,meteohub,2013-02-24 02:32:00,
2013-02-23 21:37:00,34.0,30.6,29.96,NW,315,1.0,3.0,87,0.00,,,0.00,meteohub,2013-02-24 02:37:00,
2013-02-23 21:42:00,34.0,30.6,29.96,NW,315,2.0,2.0,87,0.00,,,0.00,meteohub,2013-02-24 02:42:00,
2013-02-23 21:47:00,34.0,30.6,29.95,NW,315,1.0,3.0,87,0.00,,,0.00,meteohub,2013-02-24 02:47:00,
2013-02-23 21:52:00,34.0,30.6,29.95,South,180,1.0,3.0,87,0.00,,,0.00,meteohub,2013-02-24 02:52:00,
2013-02-23 21:57:00,34.0,30.6,29.95,NW,315,2.0,3.0,87,0.00,,,0.00,meteohub,2013-02-24 02:57:00,
2013-02-23 22:02:00,34.2,30.7,29.94,NW,315,2.0,3.0,87,0.00,,,0.00,meteohub,2013-02-24 03:02:00,
2013-02-23 22:07:00,34.2,30.7,29.94,NE,45,1.0,3.0,87,0.00,,,0.00,meteohub,2013-02-24 03:07:00,
2013-02-23 22:12:00,34.0,30.6,29.94,East,90,0.0,3.0,87,0.00,,,0.00,meteohub,2013-02-24 03:12:00,
2013-02-23 22:17:00,34.2,30.7,29.93,NE,45,2.0,3.0,87,0.00,,,0.00,meteohub,2013-02-24 03:17:00,
2013-02-23 22:22:00,34.2,30.7,29.93,NE,45,2.0,2.0,87,0.00,,,0.00,meteohub,2013-02-24 03:22:00,
2013-02-23 22:27:00,34.2,30.9,29.93,NE,45,1.0,2.0,88,0.01,,,0.01,meteohub,2013-02-24 03:27:00,
2013-02-23 22:32:00,34.2,30.9,29.93,NE,45,1.0,3.0,88,0.02,,,0.02,meteohub,2013-02-24 03:32:00,
2013-02-23 22:37:00,34.3,31.1,29.93,NW,315,2.0,3.0,88,0.04,,,0.04,meteohub,2013-02-24 03:37:00,
2013-02-23 22:43:00,34.3,31.1,29.92,East,90,2.0,3.0,88,0.05,,,0.05,meteohub,2013-02-24 03:43:00,
2013-02-23 22:48:00,34.3,31.1,29.93,NE,45,2.0,3.0,88,0.06,,,0.06,meteohub,2013-02-24 03:48:00,
2013-02-23 22:53:00,34.3,31.1,29.92,East,90,2.0,3.0,88,0.07,,,0.07,meteohub,2013-02-24 03:53:00,
2013-02-23 22:58:00,34.3,31.1,29.92,North,0,0.0,3.0,88,0.08,,,0.08,meteohub,2013-02-24 03:58:00,
2013-02-23 23:03:00,34.3,31.1,29.92,NE,45,2.0,3.0,88,0.08,,,0.08,meteohub,2013-02-24 04:03:00,
2013-02-23 23:08:00,34.3,31.1,29.91,East,90,2.0,3.0,88,0.09,,,0.09,meteohub,2013-02-24 04:08:00,
2013-02-23 23:13:00,34.3,31.1,29.91,NW,315,2.0,2.0,88,0.09,,,0.09,meteohub,2013-02-24 04:13:00,
2013-02-23 23:18:00,34.3,31.1,29.91,NE,45,2.0,3.0,88,0.11,,,0.11,meteohub,2013-02-24 04:18:00,
2013-02-23 23:23:00,34.3,31.1,29.91,ENE,68,4.0,4.0,88,0.09,,,0.11,meteohub,2013-02-24 04:23:00,
2013-02-23 23:28:00,34.3,31.1,29.90,South,180,2.0,5.0,88,0.08,,,0.11,meteohub,2013-02-24 04:28:00,
2013-02-23 23:33:00,34.3,31.1,29.90,NE,45,2.0,5.0,88,0.09,,,0.12,meteohub,2013-02-24 04:33:00,
2013-02-23 23:38:00,34.3,31.1,29.90,NE,45,2.0,4.0,88,0.08,,,0.12,meteohub,2013-02-24 04:38:00,
2013-02-23 23:43:00,34.2,30.9,29.90,SE,135,2.0,4.0,88,0.06,,,0.12,meteohub,2013-02-24 04:43:00,
2013-02-23 23:49:00,34.2,30.9,29.89,NE,45,2.0,4.0,88,0.05,,,0.12,meteohub,2013-02-24 04:49:00,
2013-02-23 23:54:00,34.3,31.1,29.89,SE,135,2.0,3.0,88,0.06,,,0.13,meteohub,2013-02-24 04:54:00,
2013-02-23 23:59:00,34.3,31.1,29.89,East,90,2.0,4.0,88,0.05,,,0.13,meteohub,2013-02-24 04:59:00,